Regional Weather Roundup
Issued by NWS

Home | Current Version | Previous Version | Text Only | Print | Product List | Glossary On
Versions: 1 2 3 4 5 6 7 8 9 10 11 12 13 14 15 16 17 18 19 20 21 22 23 24 25 26 27 28 29 30 31 32 33 34 35 36 37 38 39 40 41 42 43 44 45 46 47 48 49 50
000
ASPQ40 PGUM 280412
RWRPQ
WEATHER ROUNDUP FOR THE MARIANAS AND MICRONESIA
NATIONAL WEATHER SERVICE TIYAN GU
200 PM CHST FRI NOV 28 2014

GUZ001>004-280500-
MARIANA ISLANDS-

CITY           SKY/WX    TMP DP  RH WIND       PRES   REMARKS
GUAM AIRPORT   CLOUDY    82  77  83 NE10      29.83F HX  91
ANDERSEN AFB   PTSUNNY   82  73  74 NE20G25   29.83F
ROTA AIRPORT   MOSUNNY   82  75  78 NE17G24   29.84F
TINIAN AP      MOSUNNY   86  75  70 E21G31    29.81F HX  95
SAIPAN AP      CLOUDY    88  75  66 NE22G30   29.83F HX  97

$$

PMZ161-280500-
REPUBLIC OF PALAU-

CITY           SKY/WX    TMP DP  RH WIND       PRES   REMARKS
KOROR AP       LGT RAIN  79  77  94 E6        29.78F
KOROR WSO      LGT RAIN  79  77  94 S6        29.76F

$$

PMZ171>174-280500-
FEDERATED STATES OF MICRONESIA-

CITY           SKY/WX    TMP DP  RH WIND       PRES   REMARKS
YAP AIRPORT    PTSUNNY   88  81  79 E14G20    29.74F HX 105
CHUUK AP       PTSUNNY   88  79  74 NE10      29.68F HX 102
POHNPEI AP     NOT AVBL
POHNPEI WSO    MOSUNNY   88  77  70 NE12      29.69F HX 100
KOSRAE AP      NOT AVBL

$$

PMZ181-280500-
REPUBLIC OF THE MARSHALL ISLANDS-

CITY           SKY/WX    TMP DP  RH WIND       PRES   REMARKS
KWAJALEIN AP   PTSUNNY   88  75  66 NE18      29.67S HX  97
MAJURO AP      NOT AVBL
MAJURO WSO     PTSUNNY   86  79  79 E13       29.66R HX  99

$$



USA.gov is the U.S. government's official web portal to all federal, state and local government web resources and services.